PAL7741 RPLL-RPLC

Flight info

Callsign PAL7741
Flight time 0h 24m
Altitude 10000
Route RDVXOLIVA/06 OLIVA
Aircraft A321/M-SDE3FGHIRWY/LB1

Departure

Time 2026-04-26 15:16
Airport Ninoy Aquino International Airport (RPLL)

Arrival

Time 2026-04-26 15:40
Airport Clark International Airport / Clark Air Base (RPLC)
Time Latitude Longitude Altitude Speed Heading
2026-04-26 15:04 14.50462 121.00960 66 ft 9 kts 244°
2026-04-26 15:04 14.50425 121.00889 67 ft 13 kts 240°
2026-04-26 15:04 14.50371 121.00790 66 ft 18 kts 240°
2026-04-26 15:05 14.50304 121.00664 63 ft 22 kts 241°
2026-04-26 15:05 14.50249 121.00569 59 ft 25 kts 238°
2026-04-26 15:05 14.50124 121.00348 63 ft 29 kts 238°
2026-04-26 15:05 14.50031 121.00177 64 ft 28 kts 240°
2026-04-26 15:06 14.49938 121.00003 67 ft 21 kts 242°
2026-04-26 15:06 14.49928 120.99989 63 ft 2 kts 230°
2026-04-26 15:06 14.49909 120.99966 62 ft 7 kts 230°
2026-04-26 15:07 14.49889 120.99965 69 ft 0 kts 185°
2026-04-26 15:07 14.49888 120.99965 69 ft 0 kts 185°
2026-04-26 15:12 14.49885 120.99965 69 ft 2 kts 178°
2026-04-26 15:12 14.49858 120.99971 65 ft 5 kts 153°
2026-04-26 15:12 14.49819 121.00007 64 ft 10 kts 129°
2026-04-26 15:13 14.49818 121.00082 65 ft 13 kts 59°
2026-04-26 15:13 14.49877 121.00172 64 ft 18 kts 61°
2026-04-26 15:13 14.49920 121.00250 63 ft 4 kts 60°
2026-04-26 15:13 14.49923 121.00255 63 ft 0 kts 60°
2026-04-26 15:14 14.49924 121.00257 63 ft 1 kts 60°
2026-04-26 15:14 14.49931 121.00269 65 ft 0 kts 60°
2026-04-26 15:14 14.49931 121.00270 65 ft 1 kts 60°
2026-04-26 15:14 14.49933 121.00274 65 ft 1 kts 60°
2026-04-26 15:15 14.49935 121.00276 62 ft 1 kts 60°
2026-04-26 15:15 14.49938 121.00282 61 ft 2 kts 60°
2026-04-26 15:15 14.49962 121.00326 66 ft 29 kts 59°
2026-04-26 15:15 14.50284 121.00901 65 ft 150 kts 60°
2026-04-26 15:16 14.50931 121.02060 418 ft 215 kts 64°
2026-04-26 15:16 14.51703 121.03545 1242 ft 253 kts 60°
2026-04-26 15:16 14.52645 121.05211 2301 ft 296 kts 62°
2026-04-26 15:16 14.53690 121.07063 3625 ft 297 kts 59°
2026-04-26 15:17 14.54764 121.08892 5129 ft 307 kts 59°
2026-04-26 15:17 14.55532 121.10197 5778 ft 322 kts 59°
2026-04-26 15:17 14.57161 121.12963 6559 ft 360 kts 59°
2026-04-26 15:17 14.58580 121.15148 7098 ft 384 kts 50°
2026-04-26 15:18 14.60574 121.16856 7627 ft 353 kts 31°
2026-04-26 15:18 14.62719 121.17717 8153 ft 312 kts 14°
2026-04-26 15:18 14.64851 121.17908 8728 ft 318 kts 358°
2026-04-26 15:18 14.67081 121.17459 9311 ft 342 kts 341°
2026-04-26 15:19 14.69227 121.16233 9837 ft 366 kts 323°
2026-04-26 15:19 14.70994 121.14214 9961 ft 395 kts 303°
2026-04-26 15:19 14.72419 121.11724 10004 ft 407 kts 300°
2026-04-26 15:19 14.73841 121.09191 10005 ft 408 kts 300°
2026-04-26 15:20 14.75266 121.06658 10004 ft 408 kts 301°
2026-04-26 15:20 14.76703 121.04123 10008 ft 408 kts 301°
2026-04-26 15:20 14.78147 121.01596 10005 ft 408 kts 301°
2026-04-26 15:20 14.79594 120.99072 10006 ft 408 kts 301°
2026-04-26 15:21 14.81023 120.96586 10003 ft 408 kts 301°
2026-04-26 15:21 14.82490 120.94032 10003 ft 408 kts 301°
2026-04-26 15:21 14.83916 120.91545 10003 ft 408 kts 301°
2026-04-26 15:21 14.85361 120.89020 10004 ft 408 kts 301°
2026-04-26 15:22 14.86801 120.86500 10008 ft 408 kts 301°
2026-04-26 15:22 14.88244 120.83972 10007 ft 408 kts 301°
2026-04-26 15:22 14.89683 120.81451 10011 ft 408 kts 301°
2026-04-26 15:22 14.91126 120.78929 10012 ft 408 kts 301°
2026-04-26 15:23 14.92568 120.76405 10019 ft 408 kts 301°
2026-04-26 15:23 14.94006 120.73879 10025 ft 407 kts 300°
2026-04-26 15:23 14.95079 120.71184 10025 ft 408 kts 283°
2026-04-26 15:23 14.95571 120.68300 10033 ft 408 kts 279°
2026-04-26 15:24 14.96013 120.65396 10037 ft 408 kts 278°
2026-04-26 15:24 14.96437 120.62494 10038 ft 408 kts 278°
2026-04-26 15:24 14.97143 120.59669 10031 ft 407 kts 295°
2026-04-26 15:24 14.98789 120.57317 10028 ft 406 kts 317°
2026-04-26 15:25 15.01036 120.55704 10028 ft 379 kts 335°
2026-04-26 15:25 15.02640 120.55131 10029 ft 359 kts 349°
2026-04-26 15:25 15.05781 120.55259 10030 ft 324 kts 19°
2026-04-26 15:25 15.07668 120.56339 10033 ft 301 kts 39°
2026-04-26 15:26 15.09208 120.57746 10027 ft 291 kts 51°
2026-04-26 15:26 15.10084 120.59537 10030 ft 272 kts 77°
2026-04-26 15:26 15.10395 120.61419 9939 ft 261 kts 88°
2026-04-26 15:26 15.10029 120.63199 9816 ft 251 kts 118°
2026-04-26 15:27 15.09075 120.64663 9692 ft 241 kts 121°
2026-04-26 15:27 15.08431 120.66192 9540 ft 232 kts 109°
2026-04-26 15:27 15.07912 120.67760 9272 ft 230 kts 108°
2026-04-26 15:27 15.07408 120.69322 8988 ft 228 kts 108°
2026-04-26 15:28 15.06902 120.70876 8693 ft 227 kts 110°
2026-04-26 15:28 15.05994 120.72169 8400 ft 226 kts 147°
2026-04-26 15:28 15.04494 120.72538 8084 ft 228 kts 188°
2026-04-26 15:28 15.03040 120.71896 7747 ft 231 kts 216°
2026-04-26 15:29 15.01952 120.70681 7425 ft 233 kts 239°
2026-04-26 15:29 15.01467 120.69099 7120 ft 232 kts 268°
2026-04-26 15:29 15.02237 120.65882 6510 ft 232 kts 289°
2026-04-26 15:30 15.03228 120.62744 5861 ft 224 kts 289°
2026-04-26 15:30 15.03769 120.61243 5166 ft 222 kts 300°
2026-04-26 15:30 15.04799 120.60103 4480 ft 216 kts 329°
2026-04-26 15:31 15.06197 120.59651 4096 ft 211 kts 359°
2026-04-26 15:31 15.08748 120.60885 4025 ft 210 kts 53°
2026-04-26 15:31 15.09302 120.62244 4024 ft 210 kts 80°
2026-04-26 15:32 15.08892 120.64714 4030 ft 211 kts 106°
2026-04-26 15:32 15.08283 120.66645 4031 ft 211 kts 107°
2026-04-26 15:32 15.07819 120.68086 4028 ft 211 kts 107°
2026-04-26 15:33 15.07608 120.68739 4032 ft 203 kts 107°
2026-04-26 15:33 15.07176 120.70008 4013 ft 173 kts 114°
2026-04-26 15:33 15.06472 120.70909 4015 ft 153 kts 141°
2026-04-26 15:33 15.05543 120.71299 4008 ft 138 kts 170°
2026-04-26 15:34 15.04661 120.71148 3983 ft 127 kts 207°
2026-04-26 15:34 15.04048 120.70471 3730 ft 149 kts 251°
2026-04-26 15:34 15.03965 120.69447 4468 ft 146 kts 276°
2026-04-26 15:34 15.04029 120.68198 4518 ft 200 kts 273°
2026-04-26 15:35 15.04079 120.66683 4515 ft 221 kts 272°
2026-04-26 15:35 15.04124 120.65084 4517 ft 225 kts 272°
2026-04-26 15:35 15.04167 120.63492 4294 ft 218 kts 272°
2026-04-26 15:35 15.04211 120.61935 3609 ft 219 kts 272°
2026-04-26 15:36 15.04258 120.60360 3132 ft 219 kts 272°
2026-04-26 15:36 15.04306 120.58778 3027 ft 222 kts 272°
2026-04-26 15:36 15.04355 120.57170 3029 ft 223 kts 272°
2026-04-26 15:36 15.04407 120.55564 3027 ft 223 kts 272°
2026-04-26 15:37 15.04462 120.53962 3029 ft 223 kts 272°
2026-04-26 15:37 15.04905 120.52455 3023 ft 221 kts 308°
2026-04-26 15:37 15.06134 120.51635 2924 ft 203 kts 350°
2026-04-26 15:37 15.07408 120.51752 2388 ft 178 kts 20°
2026-04-26 15:38 15.08586 120.52202 2079 ft 183 kts 23°
2026-04-26 15:38 15.09735 120.52670 2028 ft 185 kts 23°
2026-04-26 15:38 15.10926 120.53158 2030 ft 184 kts 23°
2026-04-26 15:38 15.12118 120.53650 1987 ft 185 kts 23°
2026-04-26 15:39 15.13243 120.54087 1607 ft 161 kts 22°
2026-04-26 15:39 15.14239 120.54488 1191 ft 149 kts 21°
2026-04-26 15:39 15.15166 120.54900 1006 ft 144 kts 21°
2026-04-26 15:39 15.15781 120.55150 906 ft 143 kts 19°
2026-04-26 15:40 15.17028 120.55625 624 ft 143 kts 18°
2026-04-26 15:40 15.17953 120.55986 441 ft 141 kts 22°
2026-04-26 15:40 15.18850 120.56341 429 ft 124 kts 20°
2026-04-26 15:40 15.19376 120.56547 433 ft 37 kts 20°
2026-04-26 15:41 15.19581 120.56617 435 ft 20 kts
2026-04-26 15:41 15.19641 120.56545 437 ft 13 kts 283°
2026-04-26 15:41 15.19677 120.56442 430 ft 17 kts 293°
2026-04-26 15:41 15.19628 120.56352 436 ft 18 kts 200°
2026-04-26 15:42 15.19496 120.56301 422 ft 22 kts 202°
2026-04-26 15:42 15.19454 120.56181 436 ft 20 kts 290°
2026-04-26 15:42 15.19499 120.56068 431 ft 18 kts 293°
2026-04-26 15:42 15.19519 120.56014 425 ft 0 kts 290°